[[{"header":{"parameterUnit":"m.s-1","parameterCategory":1,"la1":30.2991,"la2":30.254,"lo1":-89.0895,"lo2":-89.0444,"dy":0.0017,"dx":0.0017,"nx":28,"ny":28,"refTime":"2025-08-19T21:00:00:Z","depth":0,"parameterNumber":2,"parameterNumberName":"U-component_of_WINDS"},"data":[0,0,0,0,0,0,0,0,0,0,0,0,0,0,0,0,0,0,0,0,0,0,0,0,0,0,0,0,0,0,0,0,0,0,0,0,0,0,0,0,0,0,0,0,0,0,0,0,0,0,0,0,0,0,0,0,0,0,0.8003,0.8004,0,0.8082,0.8083,0.8084,0.8078,0.8077,0.8076,0.8075,0.8161,0.8164,0.8168,0,0,0,0,0,0,0,0,0,0,0,0,0,0.7852,0.7855,0.8003,0.8004,0.8005,0.8082,0.8083,0.8085,0.8078,0.8077,0.8075,0.8074,0.816,0.8164,0.8168,0,0,0,0,0,0,0,0,0,0,0,0,0,0.7923,0.7856,0.8003,0.8011,0.8013,0.8082,0.8083,0.8085,0.8079,0.8077,0.8075,0.8073,0.8158,0.8163,0.8168,0.8236,0,0,0.8184,0.8186,0,0,0,0,0,0,0,0,0.7919,0.7929,0.8009,0.8011,0.8013,0.8068,0.8062,0.8136,0.8079,0.8054,0.8075,0.8072,0.8132,0.8139,0.8158,0.824,0.8244,0.8185,0.8188,0.819,0.8191,0,0,0,0,0,0,0,0.7914,0.7925,0.8035,0.801,0.8012,0.8013,0.8021,0.8076,0.8102,0.8056,0.8056,0.8065,0.8133,0.8153,0.816,0.8245,0.8184,0.8189,0.8192,0.8194,0.8389,0.8391,0,0,0,0,0,0,0.7907,0.7921,0.8032,0.8037,0.796,0.8017,0.8026,0.8052,0.8102,0.8107,0.8066,0.8064,0.8145,0.8154,0.8163,0.8247,0.819,0.8195,0.8198,0.8387,0.8389,0.8391,0,0,0,0,0,0,0.7903,0.7916,0.8029,0.7979,0.7993,0.8021,0.8051,0.8055,0.8075,0.8109,0.8115,0.8082,0.8144,0.8156,0.8218,0.8249,0.8197,0.8202,0.8384,0.8387,0.839,0.8413,0,0,0,0,0,0,0.7899,0.7915,0.794,0.798,0.7996,0.8081,0.8053,0.8058,0.8084,0.8082,0.8126,0.8131,0.8144,0.821,0.8223,0.8256,0.8206,0.8382,0.8386,0.8389,0.841,0.8417,0.8423,0,0,0,0,0,0.7894,0.7944,0.7941,0.7955,0.8027,0.8083,0.8092,0.8104,0.8086,0.8112,0.8134,0.813,0.8244,0.8217,0.8231,0.8266,0.838,0.8384,0.8389,0.8407,0.8416,0.8423,0,0,0,0,0,0,0.7909,0.795,0.7947,0.8011,0.8043,0.8082,0.8115,0.8113,0.8152,0.8149,0.8164,0.8174,0.8236,0.8257,0.8226,0.8335,0.831,0.8317,0.8318,0.8327,0.8333,0.8327,0.821,0,0,0,0,0,0.792,0.796,0.7994,0.8048,0.8064,0.8086,0.8111,0.8117,0.8152,0.8166,0.8193,0.8228,0.8272,0.83,0.8343,0.8413,0.8423,0.8444,0.845,0.8455,0.8462,0.8502,0.8512,0.8407,0.8407,0.8407,0,0,0.7943,0.797,0.7995,0.8052,0.8077,0.812,0.8098,0.8144,0.8177,0.8174,0.8234,0.8255,0.8295,0.8362,0.8393,0.8381,0.8493,0.8461,0.8465,0.8469,0.8508,0.8518,0.8527,0.841,0.841,0.8409,0,0,0.8007,0.8031,0.8079,0.8105,0.8143,0.8158,0.817,0.8208,0.8221,0.8281,0.828,0.832,0.8395,0.8424,0.8449,0.8525,0.8523,0.8538,0.8572,0.8611,0.8619,0.8627,0.8655,0.8665,0.8545,0.8545,0.8545,0,0.8031,0.8094,0.8104,0.815,0.8176,0.8174,0.8224,0.8249,0.83,0.8319,0.8305,0.8399,0.8426,0.85,0.8519,0.8538,0.8554,0.8533,0.8617,0.8625,0.8632,0.8659,0.8669,0.8547,0.8546,0.8546,0.8546,0,0.8123,0.8166,0.8201,0.8248,0.8278,0.8326,0.8345,0.8374,0.8378,0.8395,0.8457,0.849,0.8539,0.8557,0.8562,0.8632,0.8624,0.8613,0.8589,0.8643,0.8669,0.8679,0.8549,0.8548,0.8548,0.8547,0,0,0.8199,0.8251,0.8264,0.8286,0.8328,0.8363,0.8412,0.8458,0.8484,0.852,0.8562,0.8625,0.8616,0.8644,0.8652,0.8686,0.8746,0.8672,0.8673,0.8685,0.8827,0.8835,0.8846,0.8744,0.8746,0.8748,0.8823,0,0.8268,0.8351,0.8362,0.8438,0.8479,0.8478,0.852,0.8552,0.857,0.8609,0.8629,0.8674,0.8658,0.8675,0.8708,0.8731,0.8774,0.8726,0.8785,0.8787,0.8776,0.8859,0.8868,0.8938,0.8833,0.8835,0.8836,0,0.8359,0.8395,0.8474,0.8512,0.853,0.8568,0.8612,0.8648,0.8685,0.8696,0.8727,0.8731,0.8784,0.8756,0.883,0.8797,0.8822,0.8837,0.884,0.8847,0.8815,0.8869,0.896,0.8971,0.8852,0.8851,0.885,0,0.8407,0.8477,0.8533,0.8552,0.8597,0.8624,0.8644,0.8679,0.8707,0.8746,0.8764,0.8809,0.8835,0.887,0.8888,0.8866,0.896,0.8934,0.8972,0.8972,0.8992,0.8991,0.9089,0.9007,0.9007,0.9007,0.9007,0,0.8483,0.8532,0.8555,0.859,0.8645,0.8658,0.8713,0.8733,0.8764,0.8804,0.8806,0.8844,0.8864,0.8906,0.892,0.8979,0.899,0.9002,0.9005,0.9002,0.9,0.9019,0.9015,0.901,0.9009,0.9009,0.9008,0,0.8547,0.8564,0.8626,0.8663,0.8674,0.8713,0.8746,0.8781,0.8798,0.8849,0.8861,0.8889,0.8938,0.8958,0.9019,0.9029,0.9097,0.9096,0.9084,0.9085,0.9122,0.9118,0.9236,0.9253,0.9159,0.916,0.9161,0,0.8595,0.8632,0.8673,0.8699,0.872,0.8762,0.879,0.8804,0.8834,0.8879,0.8909,0.8957,0.8997,0.9076,0.9103,0.9149,0.915,0.9188,0.9158,0.9153,0.9152,0.915,0.9154,0.9194,0.9195,0.9196,0.9197,0,0.8678,0.8684,0.8723,0.8766,0.8798,0.8833,0.8867,0.8889,0.8909,0.8942,0.8991,0.9022,0.9083,0.9132,0.9181,0.9204,0.9205,0.9206,0.9217,0.9215,0.9207,0.9212,0.91,0.9203,0.9203,0.9202,0.9202,0.9202,0.8735,0.8769,0.8803,0.8847,0.8873,0.8905,0.8939,0.896,0.9001,0.9051,0.9058,0.9111,0.9149,0.9213,0.9238,0.9282,0.9272,0.9288,0.9293,0.9297,0.9299,0.9199,0.929,0.929,0.929,0.929,0.929,0,0.8819,0.8841,0.8881,0.8927,0.8962,0.8958,0.8995,0.9025,0.9072,0.9105,0.9144,0.9202,0.9249,0.928,0.9328,0.9357,0.9359,0.9369,0.9368,0.9373,0.9305,0.929,0.9367,0.9367,0.9367,0.9367,0.9367,0.9367,0.8867,0.8923,0.8934,0.9004,0.9026,0.9077,0.9099,0.9129,0.9156,0.922,0.9259,0.9277,0.9311,0.9362,0.9406,0.9414,0.9432,0.9443,0.9451,0.9386,0.9378,0.9371,0.9357,0.9447,0.9447,0.9516,0.9517,0.9517]},{"header":{"parameterUnit":"m.s-1","parameterCategory":1,"la1":30.2991,"la2":30.254,"lo1":-89.0895,"lo2":-89.0444,"dy":0.0017,"dx":0.0017,"nx":28,"ny":28,"refTime":"2025-08-19T21:00:00:Z","depth":0,"parameterNumber":3,"parameterNumberName":"V-component_of_WINDS"},"data":[0,0,0,0,0,0,0,0,0,0,0,0,0,0,0,0,0,0,0,0,0,0,0,0,0,0,0,0,0,0,0,0,0,0,0,0,0,0,0,0,0,0,0,0,0,0,0,0,0,0,0,0,0,0,0,0,0,0,-0.7264,-0.7264,0,-0.7273,-0.7273,-0.7273,-0.7299,-0.7299,-0.73,-0.7301,-0.7307,-0.7307,-0.7306,0,0,0,0,0,0,0,0,0,0,0,0,0,-0.727,-0.727,-0.7264,-0.7264,-0.7265,-0.7273,-0.7273,-0.7273,-0.7299,-0.73,-0.73,-0.7301,-0.7307,-0.7307,-0.7306,0,0,0,0,0,0,0,0,0,0,0,0,0,-0.7272,-0.727,-0.7264,-0.7279,-0.728,-0.7273,-0.7273,-0.7273,-0.7299,-0.73,-0.73,-0.7301,-0.7307,-0.7307,-0.7306,-0.7285,0,0,-0.7304,-0.7304,0,0,0,0,0,0,0,0,-0.7271,-0.7271,-0.7276,-0.7278,-0.7279,-0.7286,-0.7277,-0.7277,-0.7298,-0.7291,-0.7301,-0.7302,-0.7299,-0.7299,-0.7299,-0.7285,-0.7285,-0.7304,-0.7304,-0.7304,-0.7304,0,0,0,0,0,0,0,-0.7271,-0.7271,-0.7268,-0.7276,-0.7278,-0.7284,-0.7285,-0.7277,-0.729,-0.7292,-0.7294,-0.7295,-0.73,-0.7299,-0.7299,-0.7286,-0.7304,-0.7304,-0.7303,-0.7303,-0.7256,-0.7256,0,0,0,0,0,0,-0.7269,-0.7271,-0.7267,-0.7268,-0.7277,-0.7283,-0.7285,-0.7283,-0.729,-0.7292,-0.7294,-0.7296,-0.73,-0.73,-0.7299,-0.7276,-0.7304,-0.7303,-0.7303,-0.7257,-0.7256,-0.7255,0,0,0,0,0,0,-0.7269,-0.7269,-0.7267,-0.727,-0.727,-0.7282,-0.728,-0.7282,-0.7282,-0.7292,-0.7294,-0.7291,-0.73,-0.73,-0.7289,-0.7277,-0.7303,-0.7302,-0.7258,-0.7257,-0.7256,-0.7229,0,0,0,0,0,0,-0.7269,-0.7269,-0.7261,-0.727,-0.727,-0.7257,-0.7279,-0.7282,-0.7281,-0.7284,-0.729,-0.7291,-0.7301,-0.7289,-0.7288,-0.7276,-0.7302,-0.726,-0.7258,-0.7256,-0.7231,-0.7227,-0.7223,0,0,0,0,0,-0.727,-0.7253,-0.7261,-0.726,-0.7261,-0.7256,-0.7256,-0.7268,-0.728,-0.7272,-0.7279,-0.7291,-0.7278,-0.7288,-0.7287,-0.7275,-0.726,-0.7258,-0.7256,-0.7233,-0.7228,-0.7224,0,0,0,0,0,0,-0.7241,-0.7254,-0.7263,-0.7248,-0.7251,-0.726,-0.7251,-0.7262,-0.7261,-0.7264,-0.7278,-0.7279,-0.7266,-0.7269,-0.728,-0.7255,-0.7271,-0.7269,-0.7254,-0.7249,-0.7245,-0.7245,-0.7301,0,0,0,0,0,-0.7234,-0.7229,-0.724,-0.7226,-0.7227,-0.7239,-0.7237,-0.7246,-0.7249,-0.725,-0.7256,-0.7258,-0.7255,-0.7252,-0.7249,-0.7231,-0.7234,-0.7223,-0.7219,-0.7216,-0.7214,-0.7205,-0.7201,-0.7249,-0.7249,-0.7249,0,0,-0.7217,-0.7223,-0.722,-0.722,-0.7224,-0.7219,-0.7239,-0.7233,-0.7229,-0.7249,-0.7239,-0.7243,-0.7247,-0.7232,-0.7226,-0.7235,-0.7201,-0.7213,-0.721,-0.721,-0.7203,-0.7198,-0.7194,-0.7247,-0.7248,-0.7248,0,0,-0.7185,-0.7189,-0.7178,-0.7181,-0.7186,-0.7194,-0.7192,-0.72,-0.7204,-0.7194,-0.7209,-0.7205,-0.7198,-0.72,-0.72,-0.717,-0.7181,-0.7168,-0.7149,-0.714,-0.7137,-0.7133,-0.7123,-0.712,-0.7166,-0.7166,-0.7166,0,-0.7164,-0.7157,-0.7171,-0.7164,-0.7164,-0.7183,-0.7172,-0.7174,-0.7178,-0.7177,-0.7187,-0.718,-0.7183,-0.717,-0.7163,-0.7162,-0.7159,-0.7168,-0.7136,-0.7133,-0.713,-0.7121,-0.7117,-0.7164,-0.7165,-0.7165,-0.7165,0,-0.7132,-0.7127,-0.7118,-0.7122,-0.7121,-0.7112,-0.7124,-0.7121,-0.7131,-0.7138,-0.7128,-0.7133,-0.7132,-0.7129,-0.7138,-0.7118,-0.7123,-0.7134,-0.715,-0.7124,-0.7116,-0.7112,-0.7162,-0.7163,-0.7163,-0.7164,0,0,-0.7082,-0.7095,-0.7091,-0.7094,-0.7101,-0.7097,-0.7089,-0.7089,-0.7087,-0.7088,-0.7082,-0.7077,-0.7087,-0.7087,-0.7096,-0.7089,-0.7066,-0.7101,-0.7102,-0.7095,-0.7045,-0.7037,-0.7033,-0.7073,-0.7073,-0.7072,-0.7045,0,-0.7053,-0.7041,-0.7053,-0.7038,-0.7035,-0.7052,-0.7045,-0.7049,-0.7055,-0.7052,-0.7059,-0.7055,-0.7069,-0.707,-0.7063,-0.707,-0.7056,-0.7072,-0.7068,-0.7068,-0.7068,-0.7028,-0.702,-0.6994,-0.7042,-0.7041,-0.7041,0,-0.7017,-0.7018,-0.7003,-0.7012,-0.7011,-0.7005,-0.7006,-0.7003,-0.7007,-0.7013,-0.7013,-0.7024,-0.7017,-0.7033,-0.7023,-0.7034,-0.7033,-0.7036,-0.7035,-0.7036,-0.7053,-0.7029,-0.6986,-0.6982,-0.7035,-0.7036,-0.7036,0,-0.6984,-0.6981,-0.6973,-0.6974,-0.6984,-0.6979,-0.6983,-0.6988,-0.6988,-0.6988,-0.6988,-0.6988,-0.6988,-0.6987,-0.6998,-0.7008,-0.6987,-0.7003,-0.6991,-0.6991,-0.6987,-0.6987,-0.6944,-0.6984,-0.6984,-0.6984,-0.6985,0,-0.695,-0.694,-0.6958,-0.6953,-0.6942,-0.6957,-0.6946,-0.6952,-0.6956,-0.6952,-0.6967,-0.6962,-0.6977,-0.6974,-0.6982,-0.6973,-0.6972,-0.6977,-0.6979,-0.6976,-0.6975,-0.6976,-0.6978,-0.6983,-0.6984,-0.6984,-0.6984,0,-0.6911,-0.6923,-0.6915,-0.6925,-0.6927,-0.6919,-0.6928,-0.6923,-0.6931,-0.6926,-0.6925,-0.6936,-0.6934,-0.6945,-0.6943,-0.6949,-0.6936,-0.6941,-0.6935,-0.6937,-0.6925,-0.6926,-0.6881,-0.6876,-0.6919,-0.6918,-0.6918,0,-0.689,-0.6883,-0.6893,-0.6892,-0.6895,-0.6892,-0.6892,-0.6906,-0.6905,-0.691,-0.6905,-0.6904,-0.6904,-0.6899,-0.6906,-0.6906,-0.6911,-0.6896,-0.6911,-0.6909,-0.6912,-0.6913,-0.6913,-0.6893,-0.6892,-0.6892,-0.6891,0,-0.685,-0.6856,-0.6856,-0.6858,-0.6857,-0.6859,-0.6862,-0.686,-0.6874,-0.6873,-0.6871,-0.6871,-0.687,-0.6869,-0.687,-0.6874,-0.6885,-0.6886,-0.6884,-0.6881,-0.6878,-0.688,-0.6927,-0.6888,-0.6888,-0.6888,-0.6888,-0.6889,-0.682,-0.6816,-0.6822,-0.6821,-0.6825,-0.6827,-0.6824,-0.6831,-0.683,-0.6832,-0.6839,-0.6836,-0.6841,-0.6844,-0.6846,-0.6844,-0.6851,-0.6847,-0.6846,-0.6845,-0.6843,-0.6878,-0.6844,-0.6844,-0.6844,-0.6844,-0.6844,0,-0.6783,-0.6788,-0.6787,-0.6791,-0.679,-0.6802,-0.6805,-0.6804,-0.6801,-0.6805,-0.6805,-0.6803,-0.6802,-0.681,-0.681,-0.6807,-0.6812,-0.6806,-0.6807,-0.6808,-0.6836,-0.6839,-0.6802,-0.6802,-0.6802,-0.6802,-0.6802,-0.6802,-0.6763,-0.6756,-0.6763,-0.6758,-0.6763,-0.6761,-0.6762,-0.6764,-0.6768,-0.6765,-0.6765,-0.677,-0.6776,-0.6777,-0.6776,-0.6779,-0.6778,-0.6771,-0.6775,-0.6802,-0.6806,-0.681,-0.6813,-0.6771,-0.6771,-0.6747,-0.6747,-0.6747]}]]